Wind_Speed
17 17 17 16 15 16 16 17 16 15 14 13 12 12 14 18 21 19 18 18 19 19 19 20 19 20 21 22 22 21 21 20 20 20 18 17 17 16 16 15 15 14 14 14 15 15 15 15 15 15 16 16 17 16 16 16 17 18 19 18 17 17 15 13 14 14 15 15 16 15 14 15 16 16 16 16 16 16 16 16 16 17 16 15 15
20 18 18 17 17 17 17 17 16 15 14 13 12 12 14 17 20 19 17 18 18 18 19 20 20 20 21 21 21 21 20 20 19 19 18 17 17 16 15 14 14 14 14 15 15 15 15 15 15 15 15 16 17 16 17 17 17 18 18 17 17 18 17 14 14 15 15 15 14 14 14 15 16 15 15 16 16 16 16 16 16 17 16 15 15
22 20 18 18 17 18 18 18 17 15 14 13 12 12 14 17 20 19 17 18 18 17 18 19 20 20 20 21 21 21 21 20 19 18 18 17 17 16 15 15 15 15 15 15 15 15 15 14 14 15 15 16 17 17 17 16 16 17 16 16 17 18 19 17 15 16 16 16 14 14 15 15 15 16 16 16 16 16 15 15 15 16 16 15 15
24 22 20 19 18 19 19 19 17 16 15 14 12 12 13 16 19 18 18 18 17 17 18 18 19 20 19 20 21 21 20 20 19 18 18 17 16 16 15 15 15 15 15 15 15 15 15 14 14 15 15 16 17 16 16 15 16 16 16 16 17 18 19 18 16 16 16 17 16 16 16 15 15 17 17 16 16 15 15 14 14 16 15 15 15
25 23 21 20 19 21 20 20 18 16 15 14 13 12 13 15 18 17 18 17 17 17 18 18 19 20 20 20 20 20 19 19 19 18 17 17 16 15 15 14 15 15 15 15 15 15 14 14 14 15 15 15 16 16 15 15 14 14 14 15 16 17 17 16 15 16 16 16 16 17 16 16 15 16 16 15 15 15 15 14 13 15 15 14 15
25 24 23 21 21 22 21 20 18 16 15 14 13 13 14 15 17 17 18 18 17 17 17 18 18 19 19 20 19 19 19 18 19 18 17 17 16 15 15 15 14 15 15 15 15 15 14 14 14 14 14 14 14 14 15 14 13 13 12 12 12 12 13 14 14 13 15 15 15 16 15 16 16 15 14 14 14 14 14 14 14 14 14 13 14
25 25 23 22 22 21 21 20 18 17 15 14 14 13 14 15 16 16 17 17 17 17 17 18 18 18 19 19 19 19 19 18 18 18 17 17 16 15 15 14 14 14 14 14 13 13 12 13 14 13 13 13 13 13 14 13 13 12 10 9 8 6 7 10 12 11 13 15 14 15 15 15 15 14 14 13 13 13 13 14 14 14 13 13 13
24 25 23 22 22 21 21 20 18 17 15 14 14 14 14 15 16 16 17 17 17 17 17 17 17 18 18 18 18 18 18 18 18 18 17 16 15 15 14 14 14 13 13 12 11 10 10 12 13 12 11 11 11 11 12 11 11 10 9 8 5 2 2 6 10 10 12 15 13 13 15 15 15 15 13 13 13 13 13 13 13 13 13 12 13
23 23 22 22 21 21 20 20 18 17 16 15 14 14 14 15 15 16 16 17 17 17 17 17 17 17 17 17 17 17 17 18 18 17 15 15 14 13 13 12 12 12 11 10 9 9 9 11 13 11 10 10 9 8 8 8 8 8 8 7 3 1 3 9 10 9 12 14 13 12 13 13 14 14 13 12 12 12 13 13 12 12 12 12 12
22 21 22 22 20 20 20 19 18 17 16 15 15 14 14 15 15 15 16 16 16 16 17 16 16 16 16 16 16 16 17 17 16 15 14 13 13 12 11 10 10 10 9 8 8 9 10 10 10 10 10 9 8 7 6 6 7 7 8 6 3 3 6 13 11 9 12 13 12 11 10 10 10 12 12 11 12 12 13 12 11 12 12 12 11
20 20 21 21 20 19 19 18 18 17 16 15 14 15 15 15 15 15 15 16 16 16 16 15 15 15 15 15 15 15 16 16 15 14 13 11 10 9 9 9 9 9 8 8 9 10 10 8 7 8 9 10 10 8 7 6 7 8 7 5 4 5 9 12 10 11 12 13 13 10 9 9 10 13 12 11 12 12 12 11 11 11 11 11 11
19 20 20 20 19 18 18 18 17 16 15 15 14 14 15 14 15 15 14 14 14 15 16 15 15 14 14 14 14 14 14 14 13 12 11 9 9 8 8 8 8 7 7 8 8 9 9 8 6 7 9 11 11 9 8 8 8 8 7 5 6 9 11 10 10 12 12 11 12 11 10 11 12 12 11 11 11 11 11 10 9 10 10 10 10
20 20 20 19 18 18 18 17 16 15 14 14 13 13 14 13 14 15 15 14 14 15 15 15 15 14 13 13 13 13 12 12 11 10 9 7 7 7 8 8 7 7 7 7 7 8 9 8 7 8 11 13 12 10 10 9 9 8 7 6 8 11 10 8 9 10 10 10 11 11 10 11 10 9 11 12 10 10 10 9 9 9 8 8 9
20 20 20 19 17 17 16 16 15 14 13 13 13 13 13 13 13 15 16 15 15 16 15 14 15 14 13 12 12 11 11 11 10 9 7 6 6 7 7 6 6 6 7 7 8 8 9 9 9 11 14 14 12 11 10 9 8 8 8 7 10 11 10 9 9 9 9 9 10 11 10 9 8 8 10 11 9 9 8 9 8 8 8 8 8
21 20 19 18 17 16 15 14 13 12 12 12 13 14 13 13 13 15 16 15 15 16 15 14 15 13 12 12 11 11 11 10 8 7 6 5 5 6 6 5 5 6 6 7 8 9 9 10 12 14 15 14 12 11 10 8 7 7 7 7 10 11 9 9 9 7 7 9 10 10 8 7 8 8 9 9 10 9 8 8 8 8 8 7 7
21 20 20 19 16 15 14 13 12 12 12 13 14 14 14 13 14 15 15 15 14 15 15 15 14 13 11 11 10 10 9 8 6 4 4 4 4 4 5 4 4 5 6 7 9 9 9 11 14 17 16 14 12 11 9 8 6 5 5 5 9 10 9 8 7 6 6 8 9 9 7 7 7 8 8 9 9 8 7 8 8 7 7 6 6
21 21 21 19 17 16 14 13 12 13 13 13 13 14 13 13 14 15 15 14 13 13 14 14 13 12 11 9 9 8 7 5 3 2 3 3 3 3 3 3 4 4 5 7 8 9 9 11 15 18 17 14 12 11 8 7 6 5 4 4 8 9 8 7 5 6 6 6 7 8 8 8 8 8 8 8 8 7 7 7 7 6 6 7 6
20 20 20 19 18 16 14 14 13 13 13 12 13 13 13 14 15 16 15 14 13 13 13 14 12 12 10 8 7 6 4 2 1 1 2 3 2 1 2 2 2 3 5 6 8 8 8 10 15 17 16 14 12 11 8 7 6 5 4 3 6 8 8 6 5 5 5 5 5 6 8 8 9 8 7 7 7 7 7 7 7 6 6 7 7
20 19 19 19 17 15 15 14 13 13 12 12 13 13 14 15 15 15 15 13 12 12 12 12 12 10 8 6 5 4 2 0 0 1 2 3 3 1 0 1 2 3 5 6 7 8 8 9 13 16 16 15 13 10 8 7 7 6 4 4 6 8 8 6 5 4 4 4 4 5 7 8 8 9 8 6 6 7 7 7 6 6 6 6 6
19 18 18 17 16 15 15 13 13 12 12 12 12 13 13 14 14 13 13 12 11 10 10 10 11 9 6 6 5 3 3 1 1 1 1 1 2 1 1 0 1 3 5 6 7 8 7 7 11 14 15 15 13 10 9 8 7 6 5 4 6 8 8 6 4 3 3 3 3 5 7 7 7 8 8 7 6 7 7 6 6 6 6 6 6
18 18 16 16 15 15 14 13 12 11 12 12 12 13 12 12 13 12 12 10 9 8 9 9 9 8 6 6 5 4 3 2 2 2 2 2 1 1 2 1 0 2 4 5 6 7 7 6 7 12 15 15 13 11 9 8 7 7 6 4 4 7 7 6 5 3 3 3 3 5 6 7 8 8 8 7 7 7 6 6 6 6 6 6 6
17 16 15 15 15 14 13 13 12 11 11 12 12 12 11 11 12 12 12 10 8 7 8 9 8 7 6 5 4 3 2 1 0 0 1 1 1 2 3 3 1 1 2 4 5 6 6 5 4 8 13 15 13 11 9 7 5 6 6 4 1 5 7 7 5 4 3 3 3 4 6 8 10 9 8 8 7 6 6 6 6 6 6 6 7
16 15 15 15 14 14 13 12 12 11 11 12 13 12 11 11 12 12 11 10 8 7 8 8 7 6 6 4 3 2 1 1 2 2 0 1 1 2 3 4 3 2 1 2 3 4 5 4 3 5 11 14 13 11 9 6 4 4 5 4 1 4 7 7 6 5 4 3 3 4 6 8 9 10 10 9 8 7 6 6 6 6 6 7 7
17 15 16 16 14 14 13 12 12 11 11 12 13 12 11 11 12 12 10 10 9 8 8 7 6 6 6 4 3 2 1 1 1 2 2 1 1 2 3 4 5 5 3 2 1 2 3 3 3 2 8 12 12 10 9 5 2 3 4 5 2 2 5 6 6 6 5 4 3 4 6 8 8 9 11 10 9 7 6 6 6 7 7 7 7
17 15 16 17 15 14 13 12 11 11 11 12 12 11 11 12 12 11 10 9 8 8 7 6 6 5 5 4 3 3 2 2 1 2 3 2 1 1 3 4 6 7 6 4 2 1 1 2 2 1 5 10 11 9 8 5 1 3 6 6 3 1 4 6 7 7 7 5 4 5 6 7 8 10 11 10 9 8 7 7 7 7 7 8 8
17 16 17 17 15 13 12 12 11 11 11 11 11 10 10 10 11 11 10 9 8 7 7 6 5 5 5 4 4 4 4 4 4 4 3 3 3 3 3 4 5 7 8 7 5 3 2 0 1 1 3 8 10 8 7 5 1 5 8 9 7 4 6 8 9 9 8 6 6 6 6 6 8 10 11 10 9 9 8 8 7 8 8 8 8
16 16 17 16 14 13 12 11 11 10 10 10 10 10 9 9 9 9 9 9 8 8 7 6 6 6 5 5 5 6 6 6 7 6 5 5 4 4 4 6 6 6 8 9 8 6 4 3 1 1 3 5 8 7 7 5 4 8 11 13 13 9 9 11 11 11 10 8 7 7 7 6 8 10 11 10 9 9 9 9 8 8 9 9 8
16 16 16 16 15 13 12 11 10 9 8 9 10 9 9 9 9 8 8 8 8 7 7 7 7 7 7 7 7 8 9 9 8 8 8 7 6 6 5 6 7 7 7 8 10 9 7 6 4 3 3 4 6 7 8 8 8 10 12 14 15 13 11 13 14 13 11 9 8 8 8 7 8 9 10 10 10 10 10 9 9 9 9 9 9
16 16 16 16 16 14 13 10 9 8 7 9 10 9 8 8 8 7 6 6 6 6 6 7 7 8 8 9 10 10 11 11 10 9 9 9 9 8 7 6 7 7 8 7 7 9 9 9 8 7 6 5 6 7 9 10 10 11 12 14 16 15 12 13 15 16 14 12 9 9 10 9 8 9 10 11 11 11 11 10 10 10 9 9 10
15 14 14 16 16 15 13 10 9 8 7 8 8 8 7 7 6 5 5 5 5 5 6 7 8 9 9 10 11 12 12 12 12 10 10 10 10 10 10 9 8 8 9 9 8 8 9 10 10 10 9 9 9 10 11 12 12 12 12 14 16 15 14 14 16 18 16 14 12 10 10 10 9 9 9 11 12 12 12 12 11 11 10 10 10
14 13 13 14 15 14 13 11 10 9 8 7 8 8 7 7 6 5 6 6 6 7 8 9 9 9 9 10 11 11 11 12 13 12 11 11 10 11 11 11 10 9 9 10 10 10 10 10 11 12 12 13 13 12 13 13 14 13 12 14 16 16 15 15 16 19 19 16 14 11 11 12 10 10 10 11 13 13 13 13 12 12 11 10 10
14 13 12 13 13 12 12 12 11 11 10 9 8 8 8 8 8 7 7 8 9 9 9 9 10 10 10 10 10 10 10 11 12 12 12 11 11 11 12 12 12 11 10 10 11 12 13 12 12 13 14 15 15 15 14 15 16 16 15 16 17 17 16 15 16 20 21 19 17 14 12 13 12 11 11 11 13 14 14 14 13 13 12 11 10
13 13 11 11 11 11 11 11 11 10 10 10 10 9 9 9 8 8 8 9 10 10 9 9 9 9 8 8 9 10 11 11 10 10 10 11 11 11 11 12 12 12 12 11 11 12 13 14 14 15 16 16 18 18 17 18 18 19 19 19 19 18 18 16 16 19 22 21 19 16 14 14 13 12 12 12 13 14 15 14 14 13 13 12 12
13 12 10 10 10 10 9 9 9 9 9 9 9 9 9 9 8 7 7 8 9 8 8 8 8 8 8 8 9 10 11 10 9 10 10 11 11 10 11 11 11 12 12 13 13 13 13 14 15 15 16 17 19 20 20 21 21 22 22 21 20 20 19 18 16 18 22 22 19 18 16 15 14 13 13 14 14 15 16 16 14 13 13 14 14
14 12 11 10 9 8 8 9 9 8 8 8 8 8 8 8 7 6 7 8 8 7 7 7 7 8 9 9 10 11 11 11 10 10 10 10 9 9 9 9 10 10 11 12 13 14 14 14 15 15 16 17 19 20 21 23 23 23 23 21 19 18 17 18 17 17 21 22 21 20 17 17 17 15 15 15 15 16 17 17 17 15 14 15 15
14 13 11 9 8 7 7 8 8 7 7 7 7 8 8 7 6 6 6 7 8 7 7 8 8 9 9 10 11 11 12 12 11 10 9 8 9 9 8 8 9 9 10 11 12 14 15 15 16 16 17 17 18 19 20 21 22 23 23 21 18 17 16 17 17 17 19 21 22 21 19 18 19 19 17 16 16 16 17 18 18 17 16 16 15
12 12 11 9 9 8 7 7 8 7 7 7 7 8 7 7 7 6 6 7 7 8 8 9 9 9 10 10 10 11 12 12 11 9 8 8 9 9 9 9 9 10 10 10 12 13 14 15 15 15 17 17 17 18 18 18 19 21 21 21 20 18 16 14 16 17 19 22 24 23 22 19 19 21 20 19 18 17 18 18 18 18 18 17 16
11 10 9 9 8 8 7 7 7 7 7 7 7 7 8 7 7 7 7 8 7 8 8 9 10 11 12 10 9 10 11 11 10 9 9 10 11 11 10 10 11 11 11 12 13 13 13 14 15 15 15 16 18 17 17 17 18 19 19 20 20 18 15 13 16 18 20 22 25 25 23 21 19 20 21 22 21 19 20 20 20 20 20 19 16
11 10 8 7 7 6 5 4 3 4 4 5 6 6 6 7 6 6 7 8 8 8 8 9 10 10 10 8 7 7 8 8 9 9 10 12 12 11 11 12 13 12 12 14 14 14 14 14 15 16 16 16 17 17 18 18 18 19 20 20 20 20 19 17 16 19 20 21 23 23 22 21 20 20 21 24 23 22 22 22 23 22 22 21 17
13 11 10 9 8 7 6 4 2 1 1 1 2 3 4 4 5 5 6 7 7 7 8 9 8 8 8 7 6 7 6 6 7 9 10 11 11 11 12 14 15 14 14 15 15 16 16 16 17 16 17 17 17 18 17 18 19 20 21 21 21 20 21 21 19 18 20 21 21 22 21 21 21 21 24 24 23 24 25 24 25 25 23 22 18
16 14 13 13 13 12 11 9 7 4 3 3 2 2 4 5 5 6 7 7 8 8 8 9 8 9 8 6 7 7 6 5 5 7 8 9 10 12 14 15 16 16 16 17 17 17 17 17 17 17 18 18 19 18 16 16 16 16 17 18 19 19 20 21 21 20 21 22 22 23 23 23 24 24 26 27 24 24 26 26 27 26 24 22 20
19 18 17 16 16 16 15 13 11 8 7 6 5 5 5 6 7 7 7 8 9 10 10 10 10 9 9 7 8 8 5 4 3 4 6 8 10 12 14 15 16 16 16 17 17 17 17 17 17 19 19 18 19 19 17 13 10 11 11 10 13 15 17 19 22 23 23 23 24 26 27 26 27 28 28 29 26 25 27 28 29 28 25 23 21
19 19 18 17 17 17 16 14 13 12 10 9 8 7 7 7 7 6 7 8 10 12 12 13 13 12 12 11 11 10 8 6 5 4 5 6 8 10 12 13 14 15 15 15 15 16 16 16 17 18 18 18 19 20 19 15 13 12 8 4 5 6 8 12 19 24 25 25 26 28 28 28 28 28 29 29 28 27 27 29 30 30 28 25 23
19 18 17 16 15 15 14 14 13 13 12 11 10 8 6 6 7 6 7 8 9 10 11 13 15 14 14 14 14 13 12 10 8 7 7 7 7 9 10 11 12 12 13 15 16 17 17 17 17 16 17 18 18 19 19 18 18 15 6 2 2 2 3 6 12 19 23 25 27 29 30 30 30 29 29 28 28 30 30 30 31 31 30 26 24
19 18 17 16 14 13 12 11 11 11 11 11 10 8 6 6 6 6 8 9 10 12 13 15 16 15 16 16 16 16 15 13 12 11 10 10 10 10 11 11 11 12 13 15 17 18 18 18 18 17 17 18 18 19 19 19 19 18 13 7 3 2 3 2 5 10 16 23 27 30 32 33 33 32 31 29 29 32 33 32 32 33 31 28 25
18 17 17 16 15 13 11 10 10 10 11 11 10 9 8 8 8 9 11 12 13 14 15 16 16 16 16 15 15 16 16 14 14 13 12 12 11 12 12 12 13 13 14 16 16 17 18 18 18 18 18 19 20 20 20 20 20 20 21 19 15 13 9 3 1 4 8 18 23 27 30 32 33 33 33 31 30 33 34 33 34 34 31 28 26
16 15 15 16 15 13 12 11 11 10 10 10 9 8 9 9 10 11 12 13 14 14 13 13 14 14 14 14 14 14 15 14 14 13 13 13 12 12 13 13 13 14 14 14 15 16 17 18 18 18 19 19 20 19 21 22 20 19 22 24 25 26 24 14 7 5 4 8 16 22 27 29 31 32 33 33 32 32 33 34 35 35 32 29 26
15 15 14 14 13 12 12 12 12 12 11 10 8 8 8 8 9 9 10 12 13 13 12 12 12 13 13 13 14 13 14 14 14 14 13 13 13 12 12 12 12 13 13 14 15 16 17 18 18 19 20 19 20 21 22 21 19 19 20 22 24 27 29 25 20 14 6 4 7 13 20 27 30 30 30 31 32 33 33 34 35 35 33 30 28
13 13 13 13 12 11 11 11 13 13 11 10 9 8 8 8 8 8 8 9 10 10 11 12 13 14 15 15 15 14 15 14 14 14 14 13 13 13 13 13 14 13 13 14 16 17 18 19 19 19 20 20 20 21 23 22 21 22 22 21 22 22 24 26 26 21 12 7 6 4 10 18 22 28 31 29 30 32 33 34 35 34 34 32 29
11 12 12 12 12 11 12 13 14 13 11 10 9 8 8 8 9 9 8 9 9 9 11 12 13 15 16 16 16 16 17 16 15 15 15 14 13 14 14 14 14 14 14 15 16 17 18 19 20 20 21 22 22 22 23 24 24 26 25 23 22 20 17 16 18 19 14 11 9 6 7 11 12 21 30 32 32 33 34 35 34 34 34 32 30
11 13 13 12 12 12 14 16 16 14 12 10 8 8 8 8 9 9 10 10 10 10 11 13 13 14 14 15 15 16 17 17 16 16 16 15 14 14 14 14 14 15 15 16 16 17 18 19 20 20 21 22 23 24 25 25 25 26 27 26 26 23 19 15 15 17 13 9 8 6 9 13 13 17 25 33 36 34 34 34 34 34 34 33 32
Wind_Direction
151 153 151 149 146 149 150 150 147 145 138 130 123 112 111 121 126 118 114 112 110 108 107 109 108 109 110 112 111 110 108 106 106 106 106 104 103 102 101 100 100 97 98 98 96 96 95 96 94 96 97 99 99 99 98 97 98 93 88 83 80 78 77 82 89 91 94 93 87 86 82 83 88 91 91 90 89 89 89 90 91 89 88 86 83
153 154 152 148 147 149 152 152 150 148 141 134 125 115 114 124 128 120 116 113 111 108 108 110 110 111 110 111 111 111 109 107 106 106 106 105 105 103 103 102 101 99 98 98 97 96 95 97 97 100 102 102 102 101 99 97 97 93 88 84 81 78 77 80 89 90 91 94 92 89 85 87 90 93 94 92 91 90 91 94 95 90 88 86 84
152 154 153 148 149 151 152 153 153 152 144 137 128 119 117 127 131 123 118 115 112 109 109 112 112 111 110 111 111 111 110 109 109 108 109 106 106 104 104 103 101 101 100 99 98 98 98 99 101 105 106 106 105 104 102 101 100 96 92 86 80 76 76 78 88 91 91 96 97 98 96 92 90 94 97 95 93 91 92 96 99 94 89 87 85
151 152 151 150 152 152 153 155 156 155 147 140 133 124 121 130 132 125 121 117 113 111 112 113 113 112 111 111 110 111 111 112 112 110 110 109 108 107 106 103 103 102 101 100 99 100 100 102 106 110 110 109 108 107 105 103 104 102 97 89 79 77 79 80 87 92 96 100 99 100 100 97 94 97 100 98 95 94 93 93 96 92 88 88 84
150 150 151 153 154 152 154 157 158 157 150 144 138 129 125 131 131 126 124 120 116 114 115 115 115 114 113 113 113 114 114 114 113 112 112 111 111 108 107 105 104 103 102 102 102 102 101 106 112 112 109 108 109 107 105 101 103 106 104 95 87 86 84 84 88 94 101 102 101 100 98 100 97 96 97 96 95 95 94 91 92 88 87 87 84
149 151 152 155 155 153 155 158 159 157 153 148 142 133 128 132 132 129 127 122 117 116 116 116 116 115 117 116 116 116 115 115 114 114 112 111 109 108 108 106 105 103 103 103 102 102 102 109 115 114 109 107 107 106 105 102 102 106 107 103 100 89 75 83 89 95 108 107 103 102 99 100 95 94 96 94 93 95 94 92 91 89 89 90 88
149 152 153 155 155 153 156 158 158 158 156 151 144 135 130 133 134 131 128 122 119 119 117 118 117 117 118 118 118 117 116 116 115 114 112 110 108 108 108 106 104 103 102 101 101 101 104 113 120 116 111 111 111 111 111 108 105 104 107 105 104 88 62 86 96 97 114 114 105 104 104 103 100 99 101 99 95 94 95 92 89 86 87 89 88
150 153 154 154 153 153 157 157 158 158 156 152 144 136 132 134 135 133 128 125 123 121 120 119 119 120 119 119 119 118 119 118 117 116 113 111 110 109 109 109 107 106 105 106 106 102 103 120 130 122 113 117 116 116 114 110 106 101 100 91 90 113 112 125 117 106 118 118 108 109 110 109 106 102 99 98 95 92 92 92 90 86 86 85 86
150 153 153 152 151 154 158 158 157 158 155 151 145 138 134 135 134 133 128 127 126 124 123 121 122 123 122 121 121 121 123 121 119 117 115 115 115 114 114 115 114 116 117 119 118 109 104 119 136 138 129 125 122 121 116 111 104 95 83 74 78 80 135 154 144 122 124 122 116 118 118 118 113 105 101 97 95 95 93 93 92 89 89 85 85
150 152 153 150 151 157 159 157 156 157 156 152 147 140 135 133 131 131 129 129 128 127 125 124 125 125 125 124 124 126 126 123 120 117 115 116 117 119 119 118 116 118 119 121 118 117 117 121 134 146 151 149 147 143 133 121 102 91 74 71 83 62 121 155 155 129 126 125 124 127 123 123 114 104 104 99 97 96 92 92 91 92 92 89 89
146 149 151 149 152 158 156 155 157 157 155 151 146 140 136 133 133 132 131 132 131 131 130 129 129 127 128 126 127 130 128 125 121 117 115 113 111 115 121 120 116 112 108 106 107 115 122 124 129 137 150 157 159 157 144 125 104 85 69 82 108 101 129 150 145 126 124 123 123 125 123 118 106 104 105 98 97 97 94 94 94 93 90 86 89
144 148 148 146 152 156 155 157 157 157 152 146 142 141 141 139 140 135 132 137 137 138 137 136 134 132 132 130 132 132 129 125 122 119 113 108 104 108 116 119 117 109 100 96 99 109 117 124 126 125 137 148 153 150 136 118 101 76 64 101 123 125 136 138 131 125 123 124 123 119 117 113 104 103 107 104 101 102 101 99 96 94 92 88 87
143 146 145 147 154 155 155 155 154 151 145 143 142 143 144 142 142 138 139 145 145 142 140 141 140 138 137 135 136 134 131 129 126 121 111 102 100 105 111 114 113 104 96 88 90 103 117 128 128 127 135 144 147 139 128 113 93 70 71 118 138 138 141 132 127 126 124 127 128 122 115 113 105 98 109 114 108 105 105 105 102 98 99 96 91
141 144 146 149 152 153 153 151 149 147 147 147 145 146 146 145 145 145 150 154 151 147 146 148 145 143 145 142 141 140 139 136 132 125 114 106 104 107 111 114 112 103 92 80 82 98 117 129 129 133 141 145 144 134 124 107 85 71 77 124 147 146 145 136 128 126 124 127 130 126 116 111 110 106 112 116 114 113 110 109 107 104 104 101 99
139 144 147 147 147 151 152 149 151 153 155 151 149 151 151 153 155 155 159 160 155 154 155 153 147 146 148 147 148 148 146 143 137 130 120 114 110 111 114 117 117 104 89 77 79 91 111 127 132 139 147 148 142 132 121 100 80 72 81 128 155 153 151 141 130 124 122 129 131 126 116 107 109 115 120 119 120 120 116 114 113 109 104 102 105
142 145 147 145 147 151 151 152 155 157 156 152 154 157 158 163 163 160 164 165 161 160 161 158 151 148 151 151 153 154 153 151 144 132 116 102 103 114 119 121 121 105 85 76 75 84 105 126 138 146 152 151 143 131 118 97 73 64 81 138 165 162 158 149 133 125 121 130 133 126 120 116 113 119 125 124 123 122 118 118 116 114 109 105 107
144 147 147 146 151 152 152 154 153 154 154 153 157 160 164 168 165 164 167 168 164 161 163 162 156 154 156 155 153 155 158 159 147 118 85 56 70 111 122 118 120 106 84 74 71 80 101 128 144 153 158 154 145 134 119 95 63 51 77 150 180 173 165 160 140 127 122 127 135 131 128 127 124 126 130 129 130 128 124 122 118 120 117 108 108
146 149 149 149 153 154 156 155 152 153 153 154 158 162 167 170 168 169 172 173 169 165 166 166 161 160 162 159 157 157 156 151 93 58 32 17 27 83 111 96 101 96 82 73 70 78 97 128 148 159 163 158 150 140 122 92 62 51 72 144 190 186 173 168 150 131 125 124 135 143 144 142 135 135 140 143 141 133 129 131 129 127 118 111 111
149 150 150 152 154 154 158 156 156 155 154 157 159 164 169 172 172 173 177 177 175 173 173 171 168 168 167 166 167 164 157 105 17 360 358 353 1 28 128 69 65 69 71 70 69 75 92 125 152 163 166 163 156 145 124 97 72 63 82 132 180 189 181 179 166 140 130 124 139 153 158 159 152 146 147 152 147 139 138 138 139 130 119 119 119
148 150 152 155 155 156 160 158 159 157 158 159 162 167 168 172 173 174 178 179 181 181 178 175 174 176 177 177 181 182 183 180 194 253 325 310 333 12 205 79 42 47 60 65 65 70 84 115 151 168 171 168 163 151 128 106 89 77 78 117 169 185 188 192 186 159 143 139 153 161 167 168 160 154 152 155 150 147 146 142 145 137 129 127 122
145 150 154 155 155 158 161 160 162 160 161 162 163 166 167 171 170 169 170 168 168 168 172 172 175 180 182 185 193 202 207 215 223 220 213 241 268 169 207 224 349 26 46 56 60 64 74 96 143 170 177 174 169 156 134 119 109 93 73 80 160 187 196 203 203 190 174 163 166 170 175 165 152 157 160 160 158 158 156 149 147 139 136 134 128
146 152 155 156 158 161 165 166 166 164 164 163 159 157 163 169 166 165 162 150 143 150 159 168 177 179 184 194 200 215 238 235 242 180 205 235 235 189 206 220 244 332 23 44 53 56 63 76 121 167 181 181 176 162 144 133 120 102 76 64 138 194 204 214 215 216 203 188 180 180 182 166 159 167 169 166 165 167 164 156 151 141 138 138 136
152 155 158 161 162 165 171 172 169 168 170 166 160 157 163 169 167 167 161 150 150 161 159 165 178 176 185 195 186 186 199 125 69 44 42 159 208 214 211 222 235 254 296 17 50 53 56 58 77 161 182 185 182 169 153 142 119 95 68 61 97 194 205 216 221 229 230 213 199 194 185 174 173 174 171 170 170 171 170 165 161 154 148 143 138
158 159 162 165 169 171 174 175 173 174 176 171 167 167 170 174 175 171 168 161 165 177 172 174 182 184 195 199 185 180 180 162 74 360 345 52 192 223 228 236 241 246 256 276 19 54 56 53 40 136 184 186 184 176 163 150 107 59 36 43 53 189 206 220 228 236 239 227 212 200 189 184 186 178 172 175 175 176 173 165 161 159 156 150 143
159 160 164 167 171 174 174 173 175 179 180 177 171 173 175 177 181 179 178 174 176 183 183 186 193 202 213 220 224 233 245 253 278 311 329 332 311 255 248 251 249 252 253 262 275 309 39 62 43 53 184 186 183 179 171 162 101 1 355 4 6 268 230 236 238 240 241 232 214 203 199 195 188 177 176 183 181 177 173 166 166 167 162 151 145
160 162 166 169 172 174 176 173 176 183 185 183 174 174 179 180 184 187 189 188 189 195 199 203 211 221 232 245 252 268 274 280 294 301 306 302 314 318 294 277 258 253 252 255 261 264 293 360 110 107 175 184 181 183 182 181 283 328 329 332 329 290 253 249 246 244 240 233 217 205 204 193 179 176 182 189 183 179 178 174 173 171 165 155 149
160 166 169 172 177 178 182 180 180 185 187 187 178 176 186 189 189 193 196 200 203 209 217 223 231 239 250 263 272 283 285 291 299 302 295 283 288 297 300 303 293 271 256 251 253 256 265 271 242 193 180 186 190 197 206 221 278 307 312 315 314 297 267 255 250 246 240 236 223 209 204 190 180 183 187 190 185 184 184 179 176 173 167 160 156
159 166 172 177 184 185 187 188 187 189 189 185 180 181 190 197 199 200 201 208 215 218 229 237 242 250 263 274 280 285 290 296 296 298 294 287 283 275 275 295 306 304 284 262 252 253 259 264 262 253 240 220 216 220 231 251 276 293 301 307 309 303 280 261 251 246 242 240 229 211 204 194 189 192 192 190 188 190 187 181 178 177 172 165 165
162 167 175 182 188 192 193 195 194 193 192 185 181 183 190 201 206 207 212 223 227 230 238 244 250 258 269 281 287 288 291 293 292 292 291 290 289 283 277 278 290 301 304 293 265 255 259 266 269 269 280 282 265 253 254 262 274 286 295 304 309 306 292 272 254 246 244 242 236 216 206 203 198 198 197 190 191 195 191 186 180 179 177 171 171
167 170 175 183 190 195 198 200 203 203 197 189 188 193 200 209 213 214 227 241 250 259 260 259 264 269 277 284 291 293 290 286 284 286 285 286 285 283 283 281 282 288 296 301 293 278 269 272 276 276 286 297 297 288 280 278 279 287 296 304 305 301 297 285 261 248 245 242 238 221 208 209 205 203 202 192 194 198 193 188 184 183 180 177 179
172 174 177 184 192 199 203 205 209 212 210 204 205 215 227 231 234 237 241 254 270 279 279 275 272 276 283 283 287 293 290 282 278 277 277 279 279 280 281 282 285 287 288 290 292 293 288 282 280 280 284 289 295 296 293 290 286 286 291 297 296 293 293 290 267 249 245 242 238 227 212 212 211 209 206 200 199 199 196 191 188 188 182 183 189
172 180 187 190 196 205 210 212 213 217 220 223 226 232 243 248 250 253 259 269 278 283 285 283 279 280 284 281 281 285 287 285 279 274 274 280 285 286 284 285 289 292 290 285 283 286 288 286 281 279 279 281 285 286 286 287 285 285 287 287 287 284 283 287 270 249 245 243 237 230 220 216 216 214 212 211 208 201 198 195 190 188 185 191 197
167 180 192 194 200 209 214 219 219 222 225 230 239 243 250 253 252 257 267 274 277 279 279 280 283 284 285 286 283 283 285 287 285 281 283 290 294 294 294 294 297 296 295 292 284 280 279 279 276 275 276 278 280 281 282 282 281 282 284 286 286 280 271 272 268 249 241 240 236 230 228 225 220 217 217 219 215 205 201 196 192 190 187 192 196
168 177 185 190 198 205 213 223 222 226 230 234 243 247 251 251 251 260 270 278 282 279 275 278 287 291 290 293 294 292 288 288 291 290 291 295 297 302 307 308 307 304 302 298 292 284 277 273 272 272 272 275 277 279 281 282 281 281 282 285 285 281 269 261 263 250 236 236 236 230 230 232 226 219 220 222 218 213 206 195 194 197 193 195 195
164 166 173 180 186 196 210 219 220 226 232 235 241 241 246 250 256 267 276 287 292 290 292 299 303 305 302 299 299 297 292 290 289 290 291 295 300 308 315 318 313 307 301 296 291 288 284 278 275 275 276 277 279 280 283 284 285 284 285 285 283 282 275 260 258 252 238 235 234 229 229 236 236 228 223 223 221 219 208 194 195 198 196 203 199
160 161 170 175 179 193 207 217 219 221 223 227 235 237 242 252 267 277 284 295 300 302 308 309 307 309 308 303 298 293 288 287 286 289 297 304 313 317 318 319 313 305 297 291 290 290 292 289 283 282 283 284 286 287 287 287 287 286 287 288 286 286 284 268 256 250 241 237 233 229 229 234 237 235 228 225 224 220 208 196 193 194 198 208 204
158 163 170 174 180 192 203 218 224 225 227 229 232 237 245 258 274 281 287 296 298 300 304 304 304 305 306 303 297 288 282 284 286 290 303 312 318 319 317 315 306 298 295 296 298 298 296 293 288 285 286 288 289 289 290 290 289 288 285 285 288 290 289 274 259 254 249 243 238 234 231 229 229 232 233 230 228 220 211 202 193 195 204 212 208
140 151 164 175 184 191 199 216 231 241 241 237 235 242 254 262 273 282 288 297 301 302 305 305 306 307 307 303 296 292 285 284 286 290 304 311 311 312 311 306 299 296 301 306 307 302 296 292 290 290 292 291 290 289 290 292 291 289 285 281 282 284 282 274 259 249 246 246 243 237 233 230 227 228 232 233 232 224 215 209 199 198 207 214 212
117 124 134 151 166 170 174 193 228 256 249 241 242 250 262 265 275 292 299 311 317 316 318 316 315 316 316 313 308 309 301 290 284 289 300 306 308 308 302 297 297 301 303 304 303 300 297 295 295 297 299 295 292 291 289 290 289 287 284 279 277 275 271 269 259 242 237 243 244 239 233 232 231 229 231 231 232 231 222 213 206 203 208 214 214
107 110 111 117 122 123 122 116 123 120 88 233 260 277 292 295 305 317 321 327 329 328 331 332 334 338 336 333 334 332 323 307 295 298 301 302 305 303 297 295 299 300 297 297 298 299 299 298 297 297 297 295 292 291 291 290 288 284 282 280 278 274 267 265 260 247 241 240 239 238 232 231 233 233 232 229 228 232 230 219 211 208 210 213 212
101 107 104 101 100 101 100 92 91 98 83 62 27 1 343 336 342 350 348 349 354 349 345 347 351 354 350 350 355 348 334 323 315 315 313 308 306 300 295 296 298 297 295 295 295 295 297 296 294 292 292 292 291 292 295 292 285 284 287 285 281 275 266 260 256 250 244 241 238 236 235 236 238 235 233 230 225 227 230 224 215 213 214 213 210
93 100 99 95 94 92 89 83 81 83 73 59 47 32 12 355 351 357 359 7 17 14 13 15 16 17 19 23 21 16 12 7 343 327 326 319 310 299 296 296 296 296 293 292 293 296 297 293 290 291 291 289 289 293 295 288 276 279 287 291 291 283 268 254 251 251 245 243 241 237 237 238 238 235 231 229 226 224 226 225 220 218 218 216 213
90 95 96 92 89 85 80 77 74 73 66 58 51 36 18 0 353 2 17 33 36 32 35 34 32 35 38 36 31 29 29 23 13 1 352 336 318 306 301 298 297 297 297 297 301 304 302 297 293 293 291 287 288 291 290 284 277 281 284 280 288 294 272 245 243 250 247 242 239 235 233 233 234 233 229 228 229 227 225 224 222 221 220 219 217
86 87 91 89 83 77 73 70 67 62 57 53 50 41 23 13 14 23 32 39 34 26 31 34 34 37 41 41 37 35 34 28 26 26 19 3 342 326 317 312 307 305 305 305 305 305 305 302 300 297 291 285 284 287 287 282 277 276 270 250 263 260 268 236 232 247 246 238 234 231 231 230 231 231 228 228 230 230 227 224 223 223 222 220 220
80 80 85 85 80 73 66 63 59 54 49 44 41 35 19 13 11 6 8 15 15 13 16 24 31 36 40 43 42 42 44 42 40 38 30 20 5 347 335 328 323 317 313 311 308 308 307 304 300 297 291 283 279 281 285 283 277 271 257 246 262 257 269 254 235 252 242 232 231 230 230 230 231 231 229 229 230 231 228 226 225 224 224 222 222
77 81 84 83 78 72 63 58 54 46 42 36 31 30 27 25 22 18 19 23 26 26 25 25 27 32 35 39 41 42 42 43 44 42 34 26 17 5 357 347 337 330 322 317 315 314 310 307 304 298 292 286 282 280 282 284 280 276 265 257 258 257 264 281 289 282 243 231 231 230 231 232 232 230 227 228 229 230 228 227 226 225 224 224 222
83 85 84 80 75 69 63 58 55 46 39 33 27 30 37 41 41 40 38 38 34 29 26 23 21 24 28 30 33 33 32 32 35 38 35 29 25 17 9 1 350 342 333 325 324 324 320 317 313 304 299 294 287 280 279 282 279 276 272 266 263 261 262 263 257 274 274 238 230 227 230 232 230 228 226 228 228 227 227 226 226 226 225 224 223
88 84 78 76 71 64 59 53 51 47 38 33 31 35 44 48 50 46 40 39 35 24 16 9 6 7 12 16 20 23 25 24 24 26 27 25 23 19 13 8 358 346 336 329 327 328 326 322 319 312 306 300 293 285 280 279 274 274 276 270 265 263 262 260 255 254 265 271 237 223 227 229 228 227 225 226 227 226 225 224 224 226 226 225 224
88 83 77 77 70 58 50 44 44 41 33 30 31 41 53 59 62 58 49 43 35 22 10 1 355 353 354 357 359 3 10 14 15 16 16 16 17 16 13 10 5 355 344 336 332 330 327 324 322 315 308 301 296 289 281 277 275 276 279 272 267 264 260 258 255 249 244 254 254 222 220 223 226 227 224 225 227 226 226 224 224 225 226 226 225
96 89 85 80 69 58 53 49 44 39 34 33 34 41 50 57 65 67 59 49 36 21 9 1 354 348 344 344 344 346 353 359 2 6 8 8 8 9 9 6 3 359 352 345 338 334 331 327 325 318 309 301 293 288 282 282 282 280 277 272 269 266 258 255 251 244 239 241 246 244 220 211 219 226 226 227 228 226 226 226 225 224 226 228 227
99 91 86 78 70 63 60 56 49 40 34 34 40 50 55 60 67 69 62 52 41 29 19 11 3 354 346 340 339 341 347 350 351 355 360 1 358 359 360 355 350 347 344 341 336 333 329 323 320 317 310 303 296 289 283 282 282 279 276 271 267 265 260 253 249 243 236 233 238 245 230 222 223 226 228 230 229 227 226 226 226 226 227 229 228
Height
790 791 792 792 794 795 797 798 799 800 801 802 802 802 802 801 801 801 802 802 802 802 802 803 803 804 804 804 805 805 806 807 808 808 808 809 809 810 810 810 810 811 812 812 813 812 813 813 814 814 814 814 814 814 814 815 815 815 815 816 815 815 815 816 816 815 815 816 816 816 817 817 818 818 819 819 819 819 819 820 820 819 819 819 819
789 791 792 793 794 795 797 798 799 800 801 802 802 803 802 802 802 803 803 803 804 804 804 804 804 805 805 805 806 806 807 808 808 809 809 810 810 811 811 811 811 812 812 813 813 814 814 814 815 815 815 815 815 816 816 816 816 816 817 817 817 816 816 817 817 817 817 817 818 818 818 818 819 819 820 820 820 820 820 820 821 820 820 820 820
788 791 792 793 795 796 797 798 799 800 802 802 803 803 803 803 803 804 804 805 805 805 805 805 806 806 806 807 807 807 808 809 809 810 810 811 811 812 812 812 812 813 813 814 814 815 815 815 816 816 816 816 816 817 817 817 817 817 818 818 817 817 817 818 818 818 818 819 819 819 819 820 820 820 821 821 821 821 821 821 821 821 821 821 821
788 790 792 794 794 796 797 798 799 800 802 802 803 803 804 804 804 805 805 806 806 806 806 807 807 807 808 808 808 808 809 809 810 811 811 812 812 813 813 813 814 814 814 814 815 815 816 816 817 817 817 817 818 818 818 818 818 818 819 819 818 818 819 820 820 820 820 820 820 820 821 821 821 821 821 822 822 822 822 822 822 822 822 822 822
788 789 791 793 794 796 796 798 799 800 801 802 803 803 804 804 805 806 806 807 807 808 808 808 808 808 809 809 809 809 810 810 811 812 812 813 813 814 814 814 815 815 815 815 816 816 817 817 818 818 819 819 819 819 819 819 819 820 820 820 819 819 820 821 821 821 822 821 822 821 822 822 822 822 822 822 823 823 823 823 823 823 823 823 823
788 789 791 793 794 795 797 798 799 800 801 802 803 804 805 805 806 806 807 807 808 809 809 810 810 810 810 810 810 810 811 811 812 813 813 814 814 815 815 815 816 816 816 816 817 817 818 818 819 820 820 820 820 820 819 820 820 820 821 821 821 821 822 823 823 823 823 823 823 823 823 823 823 824 824 824 824 824 824 824 824 824 824 824 824
788 789 791 793 795 796 797 798 799 801 802 803 804 805 805 806 807 807 808 808 809 810 810 811 811 811 811 811 811 811 812 812 813 814 815 815 815 816 816 816 817 817 817 817 818 818 818 819 820 821 821 821 821 821 821 821 821 821 822 822 822 822 823 824 824 824 824 824 824 824 824 824 825 825 825 825 825 825 825 825 825 825 825 825 825
790 791 792 793 796 797 798 799 801 802 803 804 805 806 806 807 807 808 809 809 810 811 811 812 812 812 812 812 812 812 813 814 814 815 816 816 816 817 817 817 817 817 818 818 819 819 819 820 821 821 822 822 822 822 822 822 822 823 823 823 823 823 824 825 825 825 825 825 825 825 825 825 826 826 826 826 826 826 826 826 826 827 826 827 826
791 793 793 795 797 798 799 800 801 803 804 805 805 807 807 808 808 809 810 810 811 812 812 813 813 813 813 813 813 814 814 815 815 816 817 817 817 817 818 818 818 818 818 818 819 819 820 820 821 822 822 823 823 823 823 823 823 823 824 823 822 823 824 824 825 825 825 825 826 826 826 826 826 826 827 827 827 827 827 828 828 828 828 828 828
793 794 795 796 798 799 800 801 802 804 804 805 806 807 808 809 810 810 811 811 812 813 813 813 814 814 814 814 814 815 815 816 816 817 817 818 818 818 819 819 819 819 818 819 819 819 820 821 821 822 823 823 824 824 824 824 824 824 824 823 823 823 824 824 825 825 825 825 826 826 827 827 827 827 828 828 828 828 828 829 829 829 829 829 829
794 796 797 798 799 801 801 803 803 804 805 806 807 808 810 810 811 811 812 812 813 813 814 814 815 815 815 815 816 816 817 817 817 818 818 819 819 819 819 820 820 820 819 819 819 819 820 821 821 822 823 823 824 824 825 825 825 825 825 824 823 824 824 825 825 825 826 826 826 827 827 827 827 828 828 828 828 829 830 830 830 830 830 830 829
796 797 798 800 801 802 803 804 804 805 806 807 809 809 810 811 812 812 813 813 813 814 814 815 815 816 816 816 817 817 818 818 818 819 819 820 820 820 820 820 820 820 820 820 820 820 820 821 821 822 822 823 824 825 826 826 827 827 826 825 825 825 826 826 826 826 826 826 827 827 828 828 828 829 829 829 829 830 831 831 831 831 831 831 830
797 798 799 801 802 803 804 805 806 807 808 809 810 810 811 812 812 813 813 814 814 814 815 815 816 816 817 817 818 818 819 819 820 820 820 821 821 821 821 821 821 821 821 821 821 820 820 821 821 822 823 824 825 826 827 827 828 828 827 826 826 827 827 827 827 827 827 828 828 828 829 829 830 830 830 830 830 831 831 832 832 832 832 831 831
798 799 800 802 803 805 805 806 807 808 809 810 810 811 812 812 813 813 814 814 814 815 815 816 817 817 818 818 819 819 820 820 821 821 821 822 822 822 822 822 822 822 822 822 822 821 821 821 822 822 823 825 826 827 828 828 829 829 828 827 827 828 828 828 829 829 829 829 829 829 830 830 831 831 831 831 831 831 832 832 832 832 832 832 832
798 800 802 803 804 806 807 807 808 809 809 810 811 812 812 812 813 813 814 814 815 815 816 817 817 818 819 819 820 820 821 821 821 822 822 822 823 823 823 823 823 823 823 823 823 822 822 821 822 823 824 825 826 828 828 829 829 829 829 828 828 829 829 829 829 830 830 830 830 830 831 832 832 832 832 832 832 832 832 832 833 833 833 833 832
800 801 803 804 805 806 807 808 808 809 810 811 811 812 812 812 813 814 815 815 815 816 817 818 818 819 820 820 821 821 822 822 823 823 823 824 824 824 824 824 824 824 824 824 824 823 823 822 823 824 825 826 827 828 829 829 829 829 829 829 829 829 830 830 830 830 830 831 831 831 832 832 833 833 833 833 833 833 833 833 833 833 833 833 833
801 802 803 804 806 807 807 808 809 809 810 811 811 812 812 813 814 814 815 816 816 817 818 819 820 820 821 821 822 822 823 824 824 825 825 825 825 825 825 825 825 825 825 825 825 824 824 823 824 825 826 827 828 829 829 830 830 830 830 830 830 830 831 830 831 830 831 831 831 832 832 833 833 834 834 834 834 833 833 834 834 834 834 834 834
803 804 804 805 806 807 808 808 809 810 810 811 812 812 813 813 814 815 816 816 817 818 819 820 821 821 822 823 823 824 824 825 826 826 826 826 826 827 827 827 827 827 826 826 826 826 825 825 825 826 826 827 828 829 830 830 830 830 830 830 831 831 831 831 831 831 831 831 831 832 832 833 834 834 835 835 835 834 834 834 834 834 834 834 834
805 805 805 806 806 808 808 809 809 810 811 811 812 812 813 814 815 816 816 817 818 819 820 821 822 823 823 824 824 825 826 826 827 827 827 827 827 827 828 828 828 828 828 827 827 827 826 826 826 827 827 828 829 829 830 831 831 830 831 831 831 832 832 832 832 831 831 831 831 832 832 833 834 835 835 836 835 835 835 835 835 835 835 835 834
806 806 807 807 807 808 809 809 810 810 811 811 812 813 814 815 816 817 818 818 819 820 821 822 823 824 824 825 826 826 826 827 827 828 828 828 828 828 829 829 830 829 829 829 829 828 828 828 828 828 828 829 829 830 831 831 831 831 831 831 832 832 833 833 833 832 832 832 832 832 833 833 834 835 836 836 836 835 835 835 835 835 835 835 835
807 807 807 808 808 809 809 810 810 811 811 812 813 814 815 816 817 818 819 819 820 821 822 823 824 824 825 826 826 827 827 828 828 828 829 829 829 829 829 830 831 830 830 830 830 829 829 829 829 829 829 830 830 831 832 832 832 832 832 832 833 833 834 834 834 834 833 833 832 832 833 833 834 835 836 836 836 836 836 835 835 835 835 835 835
808 808 808 808 808 809 810 811 811 812 812 813 814 815 817 817 818 819 819 821 821 822 823 824 825 825 826 826 827 827 828 828 829 829 829 829 829 830 830 831 831 831 831 831 831 831 830 830 830 830 830 830 831 831 832 832 832 833 833 833 833 834 834 835 835 835 834 833 833 833 833 833 835 836 836 837 837 836 836 836 836 836 836 836 836
807 808 808 808 809 809 810 811 812 813 813 814 815 816 818 818 819 819 820 821 822 823 823 824 825 826 827 827 828 828 829 829 829 829 829 830 830 830 831 831 832 832 832 832 832 832 831 831 831 831 831 831 832 832 833 833 833 833 834 834 834 834 834 835 835 835 835 834 834 833 833 834 834 835 836 837 837 837 836 836 836 836 836 836 836
807 807 808 808 809 810 811 812 813 813 813 814 816 817 818 818 819 820 821 822 823 823 824 825 826 827 827 828 828 829 830 830 830 830 830 830 830 831 831 832 832 832 832 832 832 832 832 832 832 832 831 832 832 832 833 833 833 834 834 835 835 835 835 835 835 835 835 835 834 834 834 834 835 835 836 837 837 837 837 837 837 837 837 836 836
806 807 808 808 809 810 812 813 813 813 814 815 817 818 818 818 819 820 822 822 823 824 825 826 827 828 828 828 829 830 831 831 831 831 831 831 831 831 832 832 832 832 833 832 832 832 832 832 832 832 832 832 833 833 834 834 834 834 835 835 836 836 835 835 835 835 835 835 835 834 834 834 835 835 836 837 837 837 837 837 837 837 837 837 837
807 808 808 809 810 811 812 813 814 814 815 816 817 819 819 819 820 820 822 823 824 824 825 827 827 828 829 829 830 830 831 831 831 831 832 832 832 832 832 832 832 833 833 833 833 832 833 833 833 833 833 833 833 834 834 834 835 835 835 836 836 837 836 836 835 835 835 835 835 834 834 834 835 835 836 837 837 837 838 837 837 837 837 837 837
808 809 809 810 811 811 813 814 814 815 816 817 819 819 819 820 820 821 822 823 824 825 826 827 828 829 829 830 831 831 831 831 831 831 832 832 832 832 832 832 832 833 833 833 833 833 833 833 833 833 833 833 834 834 834 834 835 835 835 836 836 836 837 836 836 835 835 835 835 834 834 834 834 835 836 836 837 838 837 837 837 837 837 838 838
808 810 810 810 811 811 813 814 815 816 817 818 820 820 820 820 821 822 823 824 825 825 827 828 829 829 830 831 831 831 831 831 831 831 832 832 832 833 832 832 832 832 833 833 833 833 833 833 833 833 833 834 834 834 834 834 835 835 835 835 835 836 836 836 836 836 836 835 835 834 834 834 834 834 835 836 837 837 837 837 837 837 837 838 838
809 810 811 811 811 812 814 815 817 818 818 819 820 821 821 821 821 823 824 825 826 826 827 828 829 830 830 831 831 832 831 832 832 832 832 832 832 832 833 833 833 833 832 833 833 833 833 833 834 833 834 834 834 834 834 834 835 835 835 835 835 835 835 835 836 836 836 835 835 834 834 834 833 833 834 835 836 837 837 837 837 837 837 838 838
810 811 811 812 812 813 815 817 818 819 820 820 821 821 821 821 822 823 825 825 826 827 828 828 829 830 830 831 831 831 831 832 832 832 832 832 832 832 832 833 833 833 833 833 833 834 834 834 834 833 833 833 834 834 833 834 834 834 835 835 835 834 834 835 835 835 835 835 835 834 834 834 834 833 833 834 836 836 836 837 837 837 837 838 838
812 812 813 813 814 815 816 817 819 819 820 821 821 821 821 822 823 824 825 826 827 827 828 829 829 830 830 831 831 831 831 832 832 832 832 832 832 832 832 832 833 833 833 833 833 834 834 834 833 833 833 833 833 833 833 833 833 833 834 834 834 834 833 833 834 834 835 835 835 834 834 834 834 833 833 834 834 835 836 836 837 837 837 838 838
813 814 814 815 815 816 817 818 819 820 821 822 822 822 822 823 824 825 825 826 827 827 828 829 829 830 830 830 831 831 831 831 831 832 832 831 831 831 832 832 833 833 833 834 833 833 833 833 832 832 832 831 831 831 832 832 831 832 832 833 833 833 832 832 833 833 834 834 834 834 833 834 834 833 832 833 833 834 835 836 836 837 837 838 838
814 815 816 816 817 817 818 818 819 821 821 822 822 822 823 823 824 825 826 826 826 827 828 829 829 830 830 830 830 831 831 831 831 831 831 831 831 831 832 832 832 832 832 832 832 832 832 831 830 830 830 830 829 830 830 830 830 830 831 831 831 831 831 830 831 832 832 833 834 834 833 833 833 832 832 832 832 833 834 835 835 836 837 838 838
815 816 817 818 818 818 819 819 820 821 822 822 823 823 823 824 825 826 826 826 826 827 828 828 829 829 829 830 830 830 830 830 830 831 831 831 831 831 831 831 832 831 831 830 830 830 830 829 829 828 828 828 828 828 828 828 829 829 829 829 829 829 829 829 829 830 831 832 833 834 834 834 832 831 831 831 831 832 833 834 834 835 836 837 837
816 817 818 819 819 820 820 820 820 821 822 823 823 823 824 824 825 826 826 826 826 827 827 828 828 828 829 829 829 829 829 830 830 831 831 831 831 830 830 830 830 830 829 828 828 828 828 828 828 828 828 828 827 827 828 827 827 828 828 828 828 827 827 827 827 827 828 830 831 832 833 834 834 832 831 831 831 831 832 833 833 834 835 836 836
816 818 819 820 820 821 822 822 822 822 823 823 823 823 824 824 825 826 826 826 826 826 827 827 827 828 828 828 829 828 829 829 830 830 831 831 830 829 829 829 828 827 827 826 827 827 828 828 828 828 827 827 827 827 827 827 827 826 826 827 826 826 826 826 826 826 826 828 829 830 829 830 833 833 831 830 830 831 831 831 832 833 834 834 835
817 819 819 820 821 822 823 823 823 823 824 824 824 824 824 824 825 825 826 826 826 826 827 827 827 828 828 828 828 828 828 829 829 830 830 830 829 828 827 827 826 825 825 825 826 826 827 827 827 827 827 826 827 827 826 826 826 825 825 825 824 824 824 825 826 825 825 826 827 828 828 826 828 831 832 831 830 830 830 831 831 832 832 833 834
818 819 820 821 822 823 824 824 824 824 824 824 824 825 824 825 825 825 826 826 826 826 827 827 827 827 827 827 827 827 827 828 829 829 829 828 828 827 826 824 823 823 824 825 825 825 825 825 825 825 826 825 825 825 825 825 824 824 824 823 823 822 823 823 823 823 824 824 824 825 826 826 825 826 829 830 830 830 829 830 830 830 831 832 832
819 820 821 822 823 824 825 825 825 824 824 825 824 825 825 825 826 826 826 826 826 826 826 826 826 826 826 826 826 826 826 827 828 828 827 827 826 825 823 821 822 824 824 824 824 824 824 824 824 824 825 825 824 824 823 823 823 822 822 821 821 820 820 820 820 820 821 822 822 822 823 824 824 824 825 827 829 830 829 829 829 829 830 830 831
821 821 822 823 824 825 826 826 826 825 825 825 825 825 825 825 826 826 826 826 826 826 826 826 826 825 825 825 826 826 826 826 827 827 826 825 825 824 821 820 822 824 823 822 822 822 823 823 823 823 823 823 823 822 822 821 821 820 819 819 819 818 817 817 817 818 818 819 820 820 820 821 821 822 824 824 825 827 828 828 828 828 828 829 830
822 823 823 824 825 825 826 827 826 825 825 825 825 825 825 825 826 826 826 826 826 826 825 825 825 825 825 825 826 825 825 825 825 825 824 824 823 822 821 820 821 822 821 821 821 821 822 822 822 822 822 821 821 821 821 821 819 818 817 816 816 816 815 815 815 815 815 816 817 817 817 818 819 819 821 822 821 823 825 826 827 827 827 827 828
823 824 825 825 826 826 827 827 827 826 826 825 825 825 825 825 825 826 826 826 826 825 825 825 825 825 825 825 826 825 825 824 824 824 823 822 821 821 820 820 819 819 820 819 819 820 820 821 821 821 820 820 819 819 820 820 819 818 816 815 814 813 812 812 811 811 812 813 813 814 814 815 816 816 818 819 818 819 821 823 824 825 825 825 826
824 824 826 826 826 827 828 828 828 827 827 826 826 825 825 825 825 826 826 826 826 826 826 825 825 825 825 825 825 825 824 824 823 823 822 821 820 819 819 819 818 818 818 818 818 818 819 819 819 819 819 819 818 817 818 818 818 817 817 816 813 811 810 809 808 807 808 809 809 810 811 811 812 813 815 815 816 816 817 819 821 822 823 823 823
824 825 826 827 827 827 829 829 829 828 828 827 827 826 826 825 825 825 825 825 826 826 826 825 825 825 825 824 824 824 823 823 822 822 821 820 819 818 818 818 818 818 817 817 817 817 817 817 818 818 818 817 816 815 815 816 816 816 817 816 813 812 810 807 806 805 805 806 806 807 807 808 809 810 811 812 813 814 814 816 818 819 820 820 821
826 827 827 827 828 828 829 829 829 829 829 828 827 826 826 825 824 824 824 824 824 824 824 825 825 825 825 825 824 824 823 823 822 821 820 819 818 817 817 816 816 817 817 816 816 815 815 815 816 816 816 816 815 814 813 814 814 814 814 813 813 812 809 806 805 804 803 803 804 804 805 805 806 807 807 808 809 811 811 813 814 816 817 817 818
828 829 829 829 829 829 830 830 829 829 829 828 828 827 826 825 824 824 824 824 825 824 825 825 825 825 825 825 825 824 824 823 822 821 820 819 818 817 816 816 815 815 815 815 815 814 814 814 814 814 814 814 814 813 812 812 812 812 811 810 810 810 807 806 807 804 801 801 801 802 802 802 803 804 804 805 806 807 808 809 811 812 814 815 815
830 830 829 829 830 831 831 831 830 830 829 829 829 828 827 826 825 824 824 824 825 825 825 825 825 826 826 825 824 824 824 824 823 822 821 820 819 818 816 815 815 815 814 814 814 814 813 813 813 813 812 812 812 811 810 810 809 808 808 807 807 806 805 805 806 804 802 800 799 799 799 799 800 800 801 801 802 803 804 805 807 809 810 811 812
830 830 830 830 831 832 832 832 831 831 830 830 830 829 828 827 826 825 826 825 825 825 825 824 824 824 824 824 823 823 823 823 823 822 821 820 819 818 817 816 815 815 814 814 814 813 812 812 811 811 810 810 810 809 808 808 807 806 806 805 804 803 803 803 803 803 803 800 798 798 797 797 797 797 798 798 799 799 800 801 803 805 807 808 809
831 831 831 831 832 833 833 832 831 831 831 831 830 830 829 829 828 828 828 828 827 826 825 824 823 822 822 821 821 821 822 823 822 822 821 820 819 818 817 816 815 814 814 813 813 812 811 810 810 809 809 808 808 807 806 805 805 804 804 803 802 801 801 800 800 800 800 799 797 795 794 795 795 794 795 795 796 796 797 798 800 801 803 805 806
833 833 833 832 833 833 833 832 832 832 832 833 832 832 831 831 830 830 830 830 829 828 827 826 824 823 822 821 821 820 821 821 821 821 821 820 819 818 816 815 814 814 813 812 811 811 810 809 808 808 807 806 806 805 804 803 803 802 802 801 800 799 798 797 797 797 797 796 794 792 792 792 791 791 791 791 791 792 793 794 796 798 800 801 803
834 833 833 833 833 833 833 832 833 834 834 834 834 833 833 832 832 831 831 831 831 830 829 828 827 826 825 824 823 822 821 821 820 820 820 819 818 817 816 815 814 813 812 811 810 809 809 807 807 806 806 805 804 803 802 801 800 799 799 798 797 796 795 794 794 794 793 792 791 790 789 788 788 787 787 787 787 789 790 791 793 795 796 798 800